Location: Cairns City
(16.9233°S, 145.7733°E)
Time: 11:47:50
(UTC+10:00)

Hubble Space Telescope - Visible Passes

Search period start: 20 February 2018 00:00
Search period end: 02 March 2018 00:00
Orbit: 537 x 541 km, 28.5° (Epoch: 19 February)

Date Brightness Start Highest point End Pass type
(mag) Time Alt. Az. Time Alt. Az. Time Alt. Az.
20 Feb 3.0 20:02:01 10° SW 20:04:48 17° S 20:06:42 13° SE visible
21 Feb 2.9 19:51:45 10° SW 19:54:41 18° S 19:56:54 13° SE visible
22 Feb 2.7 19:41:26 10° SW 19:44:34 20° S 19:47:07 12° SE visible
22 Feb 4.0 21:22:08 10° SW 21:22:28 12° SW 21:22:28 12° SW visible
23 Feb 2.5 19:31:06 10° SW 19:34:26 23° SSE 19:37:21 12° ESE visible
23 Feb 3.6 21:11:49 10° WSW 21:12:42 16° WSW 21:12:42 16° WSW visible
24 Feb 2.3 19:20:44 10° SW 19:24:17 26° SSE 19:27:37 11° ESE visible
24 Feb 3.3 21:01:32 10° WSW 21:02:58 21° WSW 21:02:58 21° WSW visible
25 Feb 2.0 19:10:22 10° SW 19:14:06 31° SSE 19:17:50 10° E visible
25 Feb 2.8 20:51:19 10° WSW 20:53:18 27° WSW 20:53:18 27° WSW visible
26 Feb 1.7 19:00:00 10° SW 19:03:55 38° SSE 19:07:49 10° E visible
26 Feb 2.4 20:41:09 10° WSW 20:43:40 32° W 20:43:40 32° W visible
27 Feb 2.2 20:31:05 10° W 20:34:07 31° NW 20:34:07 31° NW visible
28 Feb 2.4 20:21:07 10° W 20:24:33 25° NNW 20:24:37 25° NNW visible
01 Mar 2.8 20:11:20 10° WNW 20:14:15 18° NNW 20:15:11 17° NNW visible
